Weather History for EGNM - March, 2013

Change the Weather History Date:

Saturday, March 16, 2013

  Actual Average Record
Temperature  
Mean Temperature 39 °F -  
Max Temperature 43 °F 48 °F 57 °F (2004)
Min Temperature 35 °F 36 °F 30 °F (2003)
Degree Days  
Heating Degree Days 26    
Moisture  
Dew Point 36 °F    
Average Humidity 93    
Maximum Humidity 100    
Minimum Humidity 67    
Precipitation  
Precipitation 0.12 in - - ()
Sea Level Pressure  
Sea Level Pressure 29.26 in    
Wind  
Wind Speed 4 mph ()    
Max Wind Speed 13 mph    
Max Gust Speed -    
Visibility 4.5 miles    
Events Fog , Rain , Snow    
Averages and records for this station are not official NWS values.
T = Trace of Precipitation, MM = Missing Value Source: Averaged Metar Reports

Daily Weather History Graph

Daily Weather History Graph

Search for Another Location

Airport or City:

Trip Planner

Search our weather history database for the weather conditions in past years. The results will help you decide how hot, cold, wet, or windy it might be!

Date:

Astronomy

Mar. 16, 2013 Rise Set
Actual Time 6:18 AM GMT 6:12 PM GMT
Civil Twilight 5:43 AM GMT 6:47 PM GMT
Nautical Twilight 5:02 AM GMT 7:29 PM GMT
Astronomical Twilight 4:19 AM GMT 8:12 PM GMT
Moon 7:54 AM GMT (3/16) 11:56 PM GMT (3/16)
Length of Visible Light 13h 04m
Length of Day
11h 54m
Waxing Crescent, 21% of the Moon is Illuminated
Mar 16
Waxing Crescent
Mar 19
First Quarter
Mar 27
Full
Apr 3
Last Quarter
Apr 10
New

Hourly Weather History & Observations

Time (GMT) Temp. Windchill Dew Point Humidity Pressure Visibility Wind Dir Wind Speed Gust Speed Precip Events Conditions
12:20 AM 37.4 °F - 37.4 °F 100% 29.39 in 6.2 mi Variable 2.3 mph - N/A Rain Light Rain
12:50 AM 37.4 °F - 37.4 °F 100% 29.39 in 6.2 mi SSW 1.2 mph - N/A Rain Light Rain
1:20 AM 37.4 °F - 37.4 °F 100% 29.36 in 6.2 mi Variable 1.2 mph - N/A Rain Light Rain
1:50 AM 37.4 °F - 37.4 °F 100% 29.36 in 1.9 mi ENE 1.2 mph - N/A Rain Light Rain
2:20 AM 37.4 °F - 37.4 °F 100% 29.33 in 1.0 mi Variable 1.2 mph - N/A Rain Light Rain
2:50 AM 35 °F - 35 °F 100%  in - WNW 3.5 mph - -  
2:50 AM 37.4 °F - 37.4 °F 100% 29.33 in 1.0 mi NNE 2.3 mph - N/A Rain Light Rain
3:20 AM 37.4 °F - 37.4 °F 100% 29.30 in 1.0 mi North 1.2 mph - N/A Rain Light Rain
3:50 AM 35.6 °F - 35.6 °F 100% 29.30 in 1.2 mi North 2.3 mph - N/A Rain Light Rain
4:20 AM 35.6 °F 32.8 °F 35.6 °F 100% 29.27 in 1.2 mi North 3.5 mph - N/A Rain Light Rain
4:50 AM 35.6 °F - 35.6 °F 100% 29.27 in 2.2 mi North 1.2 mph - N/A Rain Light Rain
5:20 AM 35.6 °F - 35.6 °F 100% 29.27 in 2.5 mi Variable 1.2 mph - N/A Rain Light Rain
5:50 AM 35 °F - 35 °F 97%  in - SW 2.3 mph - -  
5:50 AM 35.6 °F - 35.6 °F 100% 29.24 in 1.9 mi NE 1.2 mph - N/A Rain Light Rain
6:20 AM 35.6 °F - 35.6 °F 100% 29.24 in 0.7 mi NNE 1.2 mph - N/A   Light Drizzle
6:50 AM 35.6 °F - 35.6 °F 100% 29.24 in 0.7 mi ESE 1.2 mph - N/A   Light Drizzle
7:20 AM 35.6 °F - 35.6 °F 100% 29.24 in 0.3 mi Variable 2.3 mph - N/A Fog Fog
7:50 AM 35.6 °F 32.8 °F 35.6 °F 100% 29.24 in 0.5 mi Variable 3.5 mph - N/A Fog Fog
8:20 AM 35.6 °F 32.8 °F 35.6 °F 100% 29.24 in 0.7 mi Variable 3.5 mph - N/A   Mostly Cloudy
8:50 AM 37 °F - 37 °F 100%  in - SW 5.8 mph - -  
8:50 AM 37.4 °F 34.9 °F 37.4 °F 100% 29.24 in 0.9 mi Variable 3.5 mph - N/A   Mostly Cloudy
9:20 AM 37.4 °F 34.9 °F 37.4 °F 100% 29.24 in 2.8 mi SW 3.5 mph - N/A   Mostly Cloudy
9:50 AM 37.4 °F 32.8 °F 37.4 °F 100% 29.24 in 6.2 mi SSW 5.8 mph - N/A   Mostly Cloudy
10:20 AM 39.2 °F 34.2 °F 37.4 °F 93% 29.24 in 6.2 mi South 6.9 mph - N/A   Mostly Cloudy
10:50 AM 39.2 °F 35.0 °F 37.4 °F 93% 29.24 in 6.2 mi SSW 5.8 mph - N/A   Mostly Cloudy
11:20 AM 39.2 °F 34.2 °F 37.4 °F 93% 29.24 in 6.2 mi SSW 6.9 mph - N/A   Mostly Cloudy
11:50 AM 39 °F - 39 °F 100%  in - SW 11.5 mph - -  
11:50 AM 39.2 °F 33.0 °F 37.4 °F 93% 29.24 in 6.2 mi SW 9.2 mph - N/A   Mostly Cloudy
12:20 PM 39.2 °F 33.0 °F 37.4 °F 93% 29.27 in 6.2 mi SW 9.2 mph - N/A   Mostly Cloudy
12:50 PM 41.0 °F 35.8 °F 37.4 °F 87% 29.27 in 6.2 mi SW 8.1 mph - N/A   Scattered Clouds
1:20 PM 41.0 °F 35.8 °F 37.4 °F 87% 29.24 in 6.2 mi WSW 8.1 mph - N/A   Scattered Clouds
1:50 PM 41.0 °F 35.8 °F 37.4 °F 87% 29.24 in 6.2 mi SW 8.1 mph - N/A   Scattered Clouds
2:20 PM 42.8 °F 37.5 °F 37.4 °F 81% 29.24 in 6.2 mi South 9.2 mph - N/A   Scattered Clouds
2:50 PM 42 °F - 35 °F 67%  in - SSW 11.5 mph - -  
2:50 PM 44.6 °F 40.7 °F 37.4 °F 76% 29.24 in 6.2 mi South 6.9 mph - N/A   Scattered Clouds
3:20 PM 42.8 °F 38.6 °F 35.6 °F 76% 29.24 in 6.2 mi SSW 6.9 mph - N/A   Scattered Clouds
3:50 PM 42.8 °F 38.0 °F 33.8 °F 70% 29.24 in 6.2 mi South 8.1 mph - N/A   Scattered Clouds
4:20 PM 42.8 °F 38.0 °F 33.8 °F 70% 29.24 in 6.2 mi South 8.1 mph - N/A   Scattered Clouds
4:50 PM 42.8 °F 39.3 °F 33.8 °F 70% 29.24 in 6.2 mi South 5.8 mph - N/A   Partly Cloudy
5:20 PM 41.0 °F 37.1 °F 33.8 °F 76% 29.24 in 6.2 mi SSE 5.8 mph - N/A   Partly Cloudy
5:50 PM 39 °F - 35 °F 82%  in - SE 6.9 mph - -  
5:50 PM 39.2 °F 35.0 °F 32.0 °F 75% 29.24 in 6.2 mi SSE 5.8 mph - N/A   Partly Cloudy
6:20 PM 37.4 °F 32.8 °F 32.0 °F 81% 29.24 in 6.2 mi SSE 5.8 mph - N/A   Partly Cloudy
6:50 PM 37.4 °F 32.1 °F 32.0 °F 81% 29.24 in 6.2 mi SE 6.9 mph - N/A   Partly Cloudy
7:20 PM 39.2 °F 35.9 °F 33.8 °F 81% 29.24 in 6.2 mi ESE 4.6 mph - N/A Rain Light Rain
7:50 PM 37.4 °F 32.1 °F 35.6 °F 93% 29.24 in 4.3 mi SE 6.9 mph - N/A Rain Light Rain
8:20 PM 35.6 °F 31.7 °F 35.6 °F 100% 29.24 in 5.6 mi ESE 4.6 mph - N/A Rain , Snow Light Rain
8:50 PM 36 °F - 36 °F 100%  in - SE 12.7 mph - -  
8:50 PM 37.4 °F 32.1 °F 37.4 °F 100% 29.24 in 6.2 mi East 6.9 mph - N/A Rain Light Rain
9:20 PM 37.4 °F 29.8 °F 37.4 °F 100% 29.21 in 6.2 mi SE 11.5 mph - N/A Rain Light Rain
9:50 PM 37.4 °F 30.3 °F 35.6 °F 93% 29.21 in 6.2 mi SE 10.4 mph - N/A Rain Light Rain
10:20 PM 37.4 °F 31.4 °F 37.4 °F 100% 29.21 in 6.2 mi ESE 8.1 mph - N/A Rain Light Rain
10:50 PM 35.6 °F 28.0 °F 35.6 °F 100% 29.21 in 6.2 mi ESE 10.4 mph - N/A Rain Light Rain
11:20 PM 35.6 °F 27.5 °F 35.6 °F 100% 29.21 in 6.2 mi SE 11.5 mph - N/A Rain Light Rain
11:50 PM 35 °F - 35 °F 100%  in - SE 11.5 mph - -  
11:50 PM 35.6 °F 28.0 °F 35.6 °F 100% 29.21 in 6.2 mi SE 10.4 mph - N/A Rain Light Rain